Tracking 32954 objects as of 20-Jan-2026
HD Live streaming from Space Station
objects crossing your sky now

OBJECT H

Track OBJECT H now!
10-day predictions


NORAD ID: 42832
Int'l Code: 2017-042H
Perigee: 547.6 km
Apogee: 560.0 km
Inclination: 97.4 °
Period: 95.6 minutes
Semi major axis: 6924 km
RCS: Unknown
Launch date: July 14, 2017
Source: (TBD)
Launch site: TYURATAM MISSILE AND SPACE COMPLEX (TTMTR)
Your satellite tracking list
Your tracking list is empty




NASA's NSSDC Master Catalog

Two Line Element Set (TLE):
1 42832U 17042H   26019.44343859  .00005425  00000-0  37026-3 0  9998
2 42832  97.3971 185.4804 0008950 262.8053  97.2158 15.06565453464539
Source of the keplerian elements: AFSPC